Location: Corcelles
(46.1547°N, 4.7234°E)
Time: 04:39:57
(UTC+00:00)

CZ-2D R/B - Pass Details

Date: 14 July 2020
Orbit: 792 x 844 km, 98.7° (Epoch: 06 August)

Event Time Altitude Azimuth Distance (km) Brightness Sun altitude
Rises 00:39:20 0° 21° (NNE) 3,349 6.8 -21.2°
Reaches altitude 10° 00:41:52 10° 30° (NNE) 2,421 5.6 -21.1°
Maximum altitude 00:46:47 36° 97° (E) 1,285 3.2 -20.9°
Enters shadow 00:49:08 25° 143° (SE) 1,620 3.3 -20.8°
